Theta_e
346 352 359 357 354 355 356 355 353 352 351 350 349 348 348 346 346 345 345 345 344 344 343 342 342 343 344 345 345 348 354 358 360 356 355 356 356 357 360 358 357 354 358
347 351 358 358 356 358 357 354 352 351 351 349 348 348 346 345 344 343 343 342 342 342 342 347 349 342 342 343 345 344 349 356 358 356 354 354 355 354 357 357 357 355 357
345 349 351 359 358 357 354 352 350 350 349 347 347 345 345 344 344 345 345 345 345 346 350 352 350 347 346 351 353 353 348 352 353 355 351 347 347 353 354 356 356 356 356
344 344 348 358 358 354 353 351 350 349 347 347 346 344 344 346 346 347 347 347 347 349 352 355 356 356 355 355 354 354 350 350 353 350 347 347 349 352 353 354 355 355 355
342 345 349 358 357 353 351 350 350 348 346 346 344 344 345 345 344 346 346 348 348 353 354 353 353 352 352 352 352 354 352 349 353 345 343 344 344 350 352 352 353 354 354
342 346 356 358 355 351 350 349 348 346 346 345 344 344 344 344 344 346 346 350 350 353 352 352 351 351 350 349 351 352 352 352 350 345 344 346 346 353 353 352 352 353 352
341 349 354 357 353 351 350 349 348 346 345 344 344 344 343 344 345 347 349 352 352 351 350 350 349 348 347 347 349 348 351 352 342 343 343 344 347 352 352 352 351 351 351
343 347 351 355 353 352 349 349 347 346 345 344 345 344 343 344 346 347 351 352 351 350 349 348 347 347 348 348 347 348 352 350 344 343 342 342 349 349 349 350 349 349 349
344 347 349 348 348 350 349 348 347 346 347 346 346 346 345 345 346 349 353 352 350 349 348 347 347 346 348 347 345 351 351 348 338 340 342 342 349 348 348 349 348 348 348
342 349 346 344 343 341 341 348 347 344 344 346 345 345 345 344 346 348 351 353 349 348 347 347 346 346 348 348 347 348 350 346 338 337 338 340 347 345 346 347 346 346 346
340 344 344 343 340 337 337 343 346 344 343 344 343 345 342 333 333 339 346 351 349 348 346 345 345 346 347 345 345 348 344 337 338 336 335 344 342 341 340 341 342 344 344
335 341 342 341 340 334 338 338 336 337 335 335 334 333 332 331 334 333 344 351 350 347 345 346 347 347 346 337 331 345 336 334 335 334 334 341 340 340 338 338 338 339 342
332 339 339 339 340 333 333 334 334 334 333 334 332 330 333 336 331 331 338 341 343 346 338 340 336 330 328 330 331 332 333 329 331 333 335 337 337 336 335 335 335 337 337
327 334 336 336 337 331 330 331 333 335 335 337 340 338 339 337 339 335 330 335 340 336 337 333 325 326 326 325 332 332 332 330 328 326 331 335 335 334 333 333 332 333 334
328 332 335 336 338 333 330 331 332 334 338 339 341 340 342 341 340 337 334 334 337 339 334 327 328 327 325 325 326 327 327 323 323 324 323 333 333 332 332 332 331 331 330
329 334 335 336 340 344 341 337 336 336 334 340 339 340 339 341 339 337 337 335 332 333 328 327 323 323 328 324 322 324 324 323 323 323 323 325 332 331 331 330 330 330 330
331 336 335 337 339 342 345 340 335 335 338 335 342 342 342 342 339 338 336 334 334 333 331 327 324 326 326 325 321 321 323 322 323 322 322 321 325 330 329 329 329 329 330
334 337 338 343 340 341 343 342 342 341 339 341 344 341 345 343 341 339 337 333 335 330 333 327 322 324 322 325 326 320 319 322 322 322 322 322 321 322 327 329 329 329 330
338 338 335 341 342 342 342 346 343 343 342 343 341 342 343 344 344 337 337 333 330 332 330 329 326 321 326 322 327 321 320 320 321 324 321 321 321 322 321 329 329 329 329
341 341 340 343 342 342 342 345 344 344 341 340 343 341 341 344 343 339 332 330 333 331 326 331 326 325 326 325 325 325 323 320 320 321 321 322 322 322 321 321 322 324 330
343 342 343 341 344 342 342 341 341 338 342 342 341 345 343 341 341 332 330 328 331 329 329 328 329 324 322 327 320 322 323 323 320 322 322 322 321 322 322 322 321 320 324
345 345 346 344 343 343 344 341 342 340 344 343 342 342 343 337 334 332 331 330 331 330 331 329 325 323 323 323 318 315 313 317 320 323 321 322 322 322 322 322 322 322 321
340 348 350 349 345 343 345 345 342 342 340 338 337 337 339 339 337 334 333 331 331 331 327 326 325 324 320 323 323 316 311 310 314 320 321 322 321 320 322 322 322 323 322
338 347 350 351 345 344 344 343 341 337 333 336 338 339 338 339 338 336 334 333 333 332 330 329 328 325 325 321 320 323 319 317 310 310 317 320 320 322 322 322 323 323 323
341 343 349 350 346 344 346 342 343 338 339 336 338 337 338 338 338 338 335 334 330 330 329 330 329 328 325 322 319 318 318 317 316 311 308 311 320 322 323 324 324 324 324
341 345 349 350 348 347 346 347 341 338 339 337 334 333 337 338 337 336 336 333 332 331 329 329 330 329 326 322 321 322 320 316 313 313 309 309 311 315 322 325 324 324 325
Wind_Speed
8 10 15 15 15 13 13 15 15 14 14 13 13 13 14 14 13 13 13 12 11 10 9 7 6 6 6 5 6 6 8 10 11 12 12 13 13 15 16 17 15 13 13
15 10 15 13 12 11 14 16 14 13 13 13 12 13 13 13 13 13 12 11 11 10 10 9 6 5 5 5 5 4 8 8 9 10 11 11 13 13 14 16 15 12 14
16 11 11 12 13 14 17 14 13 13 12 12 12 12 12 12 13 12 12 11 11 11 10 11 11 7 6 5 5 6 7 6 6 5 8 6 6 13 13 15 15 15 15
14 9 7 12 13 16 15 14 13 12 11 11 11 11 11 12 12 11 11 10 10 9 9 11 11 10 8 10 10 10 7 7 7 10 4 6 6 10 13 13 15 15 15
12 9 9 12 13 14 14 13 13 12 11 11 11 11 11 10 9 9 10 9 10 9 13 12 12 11 11 11 12 10 7 5 11 9 4 3 3 10 13 16 15 16 15
12 9 11 14 14 14 13 13 12 11 11 11 10 10 9 9 8 8 8 8 10 12 11 11 10 9 9 10 11 11 8 7 5 7 3 3 6 13 15 16 16 16 16
12 7 9 14 14 14 13 12 11 11 10 10 10 9 7 8 7 8 9 11 11 11 11 10 9 8 7 8 12 9 10 19 15 7 7 6 7 12 16 16 16 16 15
15 9 8 13 14 12 12 12 10 10 10 10 9 8 7 6 8 9 10 11 11 10 9 8 6 6 9 11 11 13 21 21 16 10 8 5 11 14 16 16 16 16 16
15 11 8 6 10 13 12 11 10 10 9 8 7 6 5 6 7 9 9 10 9 7 7 5 6 9 10 12 12 13 21 23 11 7 9 4 17 18 17 17 16 17 16
16 15 11 8 7 6 6 11 10 9 9 7 7 6 4 3 2 8 8 8 8 6 4 5 7 8 8 9 10 8 20 20 11 8 5 6 15 18 17 17 16 17 16
14 15 14 13 10 8 7 8 9 10 9 8 7 6 3 2 3 5 7 7 7 5 2 2 4 7 9 6 4 11 16 6 10 6 3 14 15 16 15 13 13 15 16
16 16 15 14 13 11 9 7 6 6 5 5 5 6 4 4 5 5 6 6 6 4 2 2 5 8 8 3 1 7 7 8 6 6 4 13 14 15 13 12 12 12 14
16 15 16 15 13 12 9 7 4 4 4 4 7 6 5 4 4 4 3 3 2 4 1 2 4 2 3 3 4 4 8 5 4 4 8 12 13 13 12 11 12 12 12
8 16 13 10 13 8 7 7 7 5 5 5 6 7 3 1 2 3 3 3 3 2 4 2 2 3 7 7 6 7 9 7 4 3 6 13 12 12 10 11 12 12 15
9 10 8 9 9 9 7 6 5 5 6 5 5 5 2 2 2 3 4 4 4 4 2 3 2 4 5 4 9 7 8 8 6 3 2 13 12 12 12 12 13 14 13
9 9 8 8 8 8 5 6 5 5 4 5 4 5 5 4 3 2 2 3 3 4 3 3 2 2 4 3 7 11 10 7 6 5 3 5 11 10 11 11 12 13 14
11 11 10 9 8 6 4 4 4 5 4 3 4 7 6 5 3 1 2 1 3 3 5 3 2 2 4 3 3 7 9 9 7 6 5 4 6 11 11 11 12 13 13
13 13 11 10 8 6 4 3 3 3 3 4 5 5 6 6 5 1 2 2 4 1 4 3 1 3 1 1 1 3 6 8 9 7 5 5 5 4 9 12 12 13 14
14 12 11 12 12 9 7 4 3 4 4 4 3 4 4 5 5 5 3 2 3 2 2 3 1 1 2 3 1 4 5 6 8 8 9 8 7 6 4 13 14 13 13
15 11 9 9 11 11 6 3 3 3 1 3 4 5 6 4 5 5 4 2 2 2 1 2 4 1 2 4 3 5 5 5 6 8 10 9 8 9 7 7 6 8 16
16 14 11 9 12 8 3 4 2 3 3 3 2 6 6 5 6 5 3 2 2 3 4 5 3 3 2 2 2 2 3 7 6 5 9 10 10 10 10 9 7 5 8
13 13 11 9 11 8 7 4 3 3 3 3 4 6 6 7 7 5 4 3 2 4 3 5 5 2 2 1 2 2 1 2 3 5 4 8 11 9 11 11 11 11 9
9 10 10 10 11 7 8 4 2 3 3 1 2 3 6 8 7 7 6 5 5 3 2 3 4 5 4 3 4 4 1 4 0 2 8 7 7 7 10 12 12 12 11
8 8 9 10 11 9 8 7 6 5 5 5 5 2 4 6 7 7 7 6 5 3 3 2 4 4 3 5 3 4 3 5 4 3 2 4 5 9 10 9 12 12 12
9 9 8 9 9 7 7 8 7 6 4 1 4 7 6 6 7 7 7 7 6 4 4 4 3 5 4 3 4 3 2 3 4 3 4 4 4 7 8 10 10 12 13
9 10 10 10 10 9 8 8 8 7 4 4 4 5 4 3 4 6 6 6 6 5 5 5 5 5 5 5 4 4 4 4 3 4 3 5 6 5 8 9 11 11 11
Wind_Direction
126 128 120 117 113 116 113 97 86 82 80 75 69 65 62 59 56 51 47 46 41 36 37 33 38 44 48 51 56 65 74 78 92 83 75 67 60 55 67 74 78 82 90
128 126 122 123 122 113 94 90 88 85 83 77 72 68 63 57 55 53 49 43 42 36 34 33 27 41 46 42 41 53 61 61 72 86 84 64 67 67 74 80 81 84 88
121 123 122 115 117 103 97 95 93 90 86 81 76 70 65 65 63 61 58 51 42 40 37 30 44 45 43 42 31 42 77 65 61 93 81 63 61 75 79 80 82 81 84
124 113 115 120 111 108 105 105 102 97 92 94 90 82 78 72 66 62 60 58 56 49 42 52 58 48 47 38 35 56 80 64 48 53 84 117 107 91 88 85 84 86 86
113 114 132 121 114 108 109 110 110 109 107 101 94 90 84 75 68 60 56 57 64 55 65 59 57 51 51 48 48 52 48 93 115 82 77 104 131 101 98 90 87 83 85
111 120 137 128 123 120 123 124 120 115 111 108 102 97 92 85 70 56 59 63 74 68 70 67 55 46 39 43 40 33 15 336 142 119 160 140 63 102 99 93 89 90 88
118 125 129 133 129 129 129 128 125 121 117 112 114 110 104 89 71 63 62 74 73 70 67 61 53 34 20 39 50 24 360 75 83 89 65 63 85 97 99 98 95 93 95
131 131 137 133 128 134 135 135 128 124 126 130 134 129 122 106 78 78 76 79 75 68 66 56 41 18 357 9 38 37 61 87 85 78 71 68 98 96 97 97 101 100 99
130 129 128 125 140 143 143 141 138 138 136 131 141 156 160 121 104 97 96 93 85 75 68 46 19 3 356 358 9 50 84 85 82 89 88 79 92 94 98 98 100 103 103
144 144 152 148 144 145 149 149 146 144 145 154 173 183 170 109 122 120 102 111 111 100 72 31 8 346 344 352 5 85 98 100 101 96 89 87 90 90 82 86 90 95 96
154 155 155 158 163 163 153 161 154 158 163 178 181 203 174 196 228 161 140 142 130 129 112 43 325 316 318 336 32 85 98 93 94 82 67 90 91 89 89 94 94 90 92
161 162 163 168 168 164 162 150 165 176 183 193 195 202 202 217 218 165 157 168 163 176 184 266 277 287 291 308 282 115 98 95 89 94 94 99 95 92 92 96 92 94 98
168 159 172 170 166 164 152 167 174 179 184 203 208 197 230 221 188 148 166 163 217 204 229 224 307 314 304 294 114 99 108 96 95 89 102 96 95 100 103 106 100 96 90
133 155 171 159 156 154 159 173 178 171 196 197 196 206 174 177 163 187 170 178 211 205 226 213 262 322 20 8 116 122 111 101 91 78 104 102 105 104 114 112 114 115 116
115 135 140 125 128 162 178 179 172 178 196 187 167 189 142 100 96 122 178 191 208 174 202 194 44 5 356 352 86 96 102 106 95 94 92 112 114 121 122 121 122 120 116
130 135 143 132 125 132 156 173 136 154 177 137 160 174 138 117 101 59 331 34 79 150 159 111 88 9 12 319 92 100 123 115 118 120 121 125 124 124 126 129 127 126 126
153 145 149 149 145 134 127 130 136 154 151 173 139 161 145 123 110 19 5 164 59 112 119 114 20 18 38 9 97 117 130 139 146 148 146 132 132 136 135 138 135 135 135
156 152 154 156 153 157 168 175 162 155 132 151 143 152 148 137 139 142 3 113 61 159 121 124 139 320 41 171 202 197 135 153 157 156 155 147 150 148 150 150 148 149 147
161 156 166 153 162 165 188 194 142 103 130 132 156 148 151 165 175 151 103 94 51 82 139 155 246 177 318 308 148 217 157 154 169 166 166 170 171 163 164 168 166 167 166
161 160 173 151 160 166 168 167 142 140 162 151 155 164 183 163 164 137 110 98 29 63 232 170 202 236 232 292 282 186 185 188 178 172 178 178 184 174 170 176 179 181 183
163 161 178 154 162 156 149 156 156 187 173 204 172 169 170 129 108 117 124 129 249 210 207 211 175 210 303 297 28 335 229 205 183 198 176 185 185 183 182 182 182 187 194
161 175 168 151 157 159 152 169 165 171 186 184 166 158 165 137 143 147 170 192 227 241 238 187 170 178 232 229 207 145 295 305 276 209 196 184 187 184 190 196 191 191 191
161 162 165 147 162 164 158 141 118 78 45 68 204 168 168 164 170 170 182 197 215 170 198 212 186 179 205 277 193 176 140 225 269 209 210 204 186 183 189 196 200 199 201
173 152 151 152 154 161 175 149 153 172 182 211 188 164 185 178 186 179 189 205 211 196 194 222 218 207 171 241 329 223 249 160 175 293 299 226 205 198 198 197 201 204 198
147 156 148 141 147 170 170 157 173 195 201 242 136 158 186 195 199 195 188 197 203 192 204 210 244 244 210 197 194 267 292 231 218 162 232 244 213 210 209 206 196 203 202
147 142 150 145 166 167 184 179 183 200 218 142 153 161 187 203 219 209 202 198 200 203 207 218 231 238 230 224 216 201 205 233 240 193 214 232 204 230 210 204 208 202 198